Wind_Speed
23 23 22 18 17 20 20 22 21 23 25 25 25 24 24 23 22 21 20 20 20 20 20 21 21 22 23 24 25 24 23 23 22 22 21 20 20 20 20 20 19 18 16 16 16 16 16 16 16 16 15 15 15 15 14 14 13 14 17 17 18 18 18 19 20 20 19 19 19 18 17 18 18 17 16 17 18 17 17 17 17 17 16 16 16
24 23 22 17 18 20 21 22 22 24 23 24 25 24 24 22 22 21 20 20 19 20 20 20 21 21 23 24 24 23 23 22 22 21 20 20 20 20 20 19 18 17 16 16 17 17 16 15 15 15 14 13 14 14 14 14 14 16 17 17 18 19 20 21 20 19 18 19 20 18 17 17 17 17 16 16 17 17 16 15 15 16 16 17 16
27 23 20 17 19 20 22 23 23 24 23 24 24 24 24 23 22 21 20 20 19 20 20 20 20 21 22 23 23 23 22 21 20 20 19 19 19 19 18 17 16 16 16 17 17 17 16 15 14 14 14 13 13 13 14 14 16 18 18 19 18 19 21 21 20 20 19 19 19 18 17 17 17 17 17 16 16 16 16 15 14 15 16 16 16
29 23 19 18 18 21 23 23 24 24 25 24 24 24 23 23 23 21 21 20 20 20 20 19 19 20 21 21 22 22 21 21 19 19 19 19 19 18 17 16 16 15 16 17 16 16 15 14 13 13 13 13 12 13 14 15 17 19 19 20 19 19 21 21 20 20 20 19 18 17 17 17 17 17 16 15 15 15 15 16 14 15 16 15 15
30 24 20 19 19 22 23 24 25 25 25 24 24 23 23 23 23 22 21 21 20 20 19 19 18 18 19 20 20 21 20 19 18 18 18 18 18 17 16 16 15 15 16 16 15 14 14 14 12 12 11 11 11 12 13 15 17 18 18 19 18 19 20 19 19 20 19 19 18 17 16 16 17 17 15 13 14 14 14 15 15 15 15 15 15
31 26 22 21 21 22 23 24 25 25 24 23 23 22 22 23 23 22 22 21 20 20 19 18 17 17 18 19 19 19 18 17 17 17 17 18 17 16 16 15 15 15 15 15 14 13 13 12 12 11 11 11 10 10 12 14 16 17 16 17 17 17 17 16 17 18 18 17 16 16 15 15 17 17 15 14 13 12 12 14 14 14 14 13 14
31 28 24 22 22 22 22 24 24 25 24 23 22 21 21 22 23 22 21 21 20 19 18 17 17 16 17 18 18 17 16 15 16 17 17 17 17 16 15 15 14 14 14 14 13 12 11 11 11 10 10 10 8 8 11 14 16 16 15 14 14 14 15 14 14 12 12 13 12 13 12 13 15 15 15 14 12 11 13 14 13 13 13 13 14
30 28 24 23 22 21 22 23 24 24 24 23 22 21 20 20 22 22 21 21 19 19 17 17 16 16 16 16 17 16 16 16 16 16 16 16 16 15 15 14 14 14 13 12 12 12 11 10 9 9 8 6 6 8 12 15 16 16 14 13 12 11 12 11 11 9 8 11 9 9 10 12 14 13 13 13 10 10 12 12 12 12 12 13 13
29 27 25 23 21 20 21 23 23 23 24 24 22 21 21 20 21 22 21 20 19 18 17 16 16 16 16 16 16 16 16 16 15 14 14 13 13 13 13 14 14 14 13 12 12 11 10 9 9 8 7 6 7 9 12 15 15 15 13 11 10 10 9 8 8 7 9 11 9 7 10 12 13 12 11 11 10 10 10 11 12 12 11 12 12
23 23 23 22 20 20 21 22 23 23 24 24 22 21 21 21 21 22 21 20 19 17 16 16 16 16 15 15 15 15 15 15 14 13 12 11 11 11 11 12 13 13 13 12 11 11 10 8 8 8 7 7 7 8 12 14 14 13 12 11 10 9 8 6 5 6 11 13 10 8 10 11 11 10 9 8 10 11 11 11 11 11 11 12 12
21 17 19 21 20 21 22 22 22 23 23 24 23 21 22 22 22 22 21 21 19 17 16 16 15 16 15 15 14 14 14 13 13 12 12 11 11 10 10 11 12 13 13 12 10 10 9 7 7 7 7 8 7 8 11 13 13 12 11 11 10 9 8 7 5 8 14 15 12 10 9 10 10 9 8 7 10 11 11 11 11 11 11 12 11
24 17 16 20 21 21 22 22 22 23 24 24 23 22 22 22 22 22 21 20 19 17 17 16 16 16 15 15 14 14 14 13 13 13 12 12 12 11 11 12 13 13 12 11 10 8 7 5 4 6 7 7 7 9 11 13 13 12 11 11 10 10 11 8 7 11 16 16 13 10 10 10 9 8 7 8 10 11 10 10 10 10 11 11 11
26 20 19 20 21 23 22 22 23 23 24 24 23 23 23 23 23 22 21 20 18 17 17 17 17 16 15 15 15 14 14 13 13 12 12 12 12 12 12 13 13 12 10 10 8 7 5 3 3 6 7 8 9 10 11 12 12 11 11 10 10 10 11 10 10 14 17 15 13 11 10 10 8 7 6 7 10 12 11 10 10 10 10 10 10
26 21 21 22 22 24 23 23 23 24 24 24 23 23 23 23 23 22 20 18 18 18 18 18 17 16 15 15 14 13 13 13 12 12 12 12 12 12 12 13 13 11 10 10 9 7 4 3 4 7 9 9 10 10 10 10 10 9 9 9 10 9 10 10 12 15 16 14 13 11 10 8 7 6 6 8 11 12 11 10 10 9 10 10 10
25 21 22 23 22 23 23 23 23 24 24 24 24 23 23 23 22 21 19 18 18 19 18 17 16 16 15 14 13 13 12 12 12 12 12 12 12 12 13 13 13 10 10 11 10 7 5 5 6 8 10 10 9 8 9 8 8 7 7 8 8 7 9 10 12 14 14 14 13 12 9 7 6 6 7 10 12 11 10 11 10 10 10 9 9
24 20 19 21 22 22 21 22 23 24 23 24 24 23 22 21 20 19 19 19 19 19 18 17 17 16 15 14 13 12 12 11 11 12 12 12 12 12 13 13 12 11 10 10 9 8 7 7 7 8 9 9 8 7 8 7 7 6 6 7 6 5 7 9 12 15 14 13 13 10 7 6 5 5 6 10 12 11 10 11 10 10 10 9 9
23 19 17 19 22 22 21 21 22 23 23 24 24 23 21 20 19 18 19 19 19 18 17 17 16 15 14 13 12 12 11 11 10 11 11 11 11 12 12 12 11 10 10 10 9 8 8 8 8 8 9 7 6 7 7 7 6 6 5 5 4 4 6 6 11 15 14 13 11 8 6 5 4 4 4 8 11 11 11 10 9 9 10 9 9
24 20 17 17 21 23 23 21 21 22 22 23 23 21 20 19 18 18 18 18 18 17 16 16 15 14 13 12 12 11 11 10 10 10 10 10 10 11 11 10 10 9 9 9 8 8 8 8 8 8 8 6 6 6 5 6 6 5 5 4 3 4 7 6 10 16 14 13 10 7 5 4 2 2 3 6 10 11 11 11 9 9 9 9 9
28 23 20 19 20 23 24 22 21 21 21 22 22 21 19 19 18 18 18 17 17 16 15 14 14 13 12 11 11 10 10 9 9 9 9 9 10 10 9 9 9 8 8 8 7 7 7 7 7 7 7 6 5 5 4 4 4 5 5 4 4 5 7 7 11 16 14 12 9 7 5 3 2 1 3 6 10 11 11 11 10 9 9 8 8
31 27 23 23 22 23 23 22 21 21 21 22 22 20 19 18 18 17 17 17 17 15 14 13 12 12 11 11 10 10 9 9 9 8 8 8 9 9 8 8 8 7 7 7 6 6 6 6 6 5 5 4 3 3 2 3 3 4 4 4 4 6 7 6 9 14 13 11 9 7 4 2 2 2 4 7 10 12 12 11 11 10 9 9 9
31 28 25 25 24 23 22 22 21 21 21 22 21 20 19 19 18 17 17 17 16 15 13 12 12 11 10 10 10 9 9 9 8 8 7 7 8 8 8 7 7 7 6 6 6 6 6 5 5 4 3 2 1 1 2 2 2 3 4 4 4 6 7 6 7 12 12 11 9 7 4 2 2 3 5 8 11 12 12 11 11 10 9 9 9
28 27 26 27 26 23 23 22 21 21 22 22 21 20 19 19 19 18 18 17 15 15 13 12 12 11 11 10 10 9 9 9 8 8 7 7 7 7 7 7 6 6 6 5 5 6 6 5 5 4 3 2 2 2 2 3 2 2 3 4 5 7 7 6 6 11 12 11 9 7 4 2 2 3 6 9 11 12 11 10 10 10 9 9 9
23 23 26 27 27 26 24 23 22 21 22 22 22 21 20 20 19 18 17 16 15 14 14 13 12 11 11 10 10 10 10 10 9 8 7 7 7 7 7 7 6 6 6 5 5 6 5 5 4 3 2 2 3 3 3 3 3 2 2 3 5 6 6 6 6 9 12 11 9 7 4 3 3 4 7 9 11 11 11 10 10 10 9 9 9
22 23 25 25 26 28 26 24 23 21 22 22 22 21 21 20 19 17 16 15 14 13 13 12 11 11 11 11 11 10 10 9 9 8 8 8 8 8 8 8 7 7 7 6 6 6 5 5 3 2 2 2 2 3 4 4 3 3 2 2 4 4 4 5 6 8 10 11 9 7 5 3 4 5 7 9 10 11 12 11 10 10 9 9 8
24 25 24 24 25 26 25 24 22 22 21 21 21 21 21 20 18 16 15 14 14 13 12 12 11 11 11 11 11 10 10 9 9 9 8 7 8 8 9 9 8 7 8 8 7 7 6 5 4 3 3 2 3 4 5 3 2 2 3 3 4 4 3 3 5 7 9 10 9 7 6 4 5 6 7 8 9 11 12 12 11 10 9 9 9
27 26 24 25 26 26 25 23 22 21 21 21 21 20 20 19 18 16 15 15 14 14 13 13 12 12 11 11 11 11 10 9 9 9 7 7 8 9 10 10 9 8 8 8 8 7 6 5 5 5 4 4 4 4 4 2 3 3 3 5 6 5 4 4 6 7 8 10 9 7 6 5 6 6 7 7 8 11 12 12 11 10 10 9 9
30 27 25 27 28 27 26 24 23 22 21 21 21 20 20 19 18 17 16 16 14 14 14 14 13 13 12 12 12 11 11 10 9 9 7 7 8 9 10 10 10 11 10 9 8 7 6 5 4 5 4 3 3 3 3 3 4 5 4 4 6 6 5 7 8 8 9 10 8 7 7 6 6 7 7 7 9 12 12 12 11 10 10 10 9
31 29 26 28 29 29 28 26 24 23 22 22 21 21 20 19 18 18 18 16 14 13 13 13 13 13 12 11 11 11 11 10 10 9 8 8 8 9 10 10 11 12 12 10 9 8 6 6 5 4 4 4 4 4 4 4 5 6 6 4 6 8 7 9 11 10 10 11 8 6 6 6 7 8 7 7 9 12 13 12 11 11 11 10 9
30 30 28 29 30 29 28 28 26 25 23 22 22 21 20 20 19 18 17 16 14 13 13 13 13 13 12 12 11 10 10 9 9 10 10 10 9 9 8 9 9 11 12 12 11 10 9 8 8 7 7 6 6 6 6 5 4 5 8 6 7 9 9 11 13 12 12 11 9 7 6 7 7 8 9 7 9 12 13 11 11 12 11 11 10
28 30 28 26 25 22 21 25 26 24 23 22 21 21 21 20 19 18 16 16 14 13 14 13 13 13 12 12 11 11 9 9 9 10 11 10 9 8 8 7 8 10 12 12 12 11 11 10 10 10 10 10 9 7 6 6 1 2 7 10 10 11 10 12 14 13 13 12 9 8 7 7 8 9 10 8 8 12 12 10 11 11 11 11 10
26 29 26 23 22 18 18 22 24 23 23 22 21 22 22 21 19 17 16 15 14 14 14 14 14 13 12 10 10 10 9 9 10 10 10 9 9 9 8 7 8 9 10 11 12 12 12 11 10 9 10 11 10 7 6 6 2 3 1 5 8 11 11 12 15 15 15 14 11 10 8 8 8 9 10 9 8 12 12 9 10 10 9 11 11
23 26 25 23 22 20 20 24 24 24 24 22 21 22 21 20 18 17 16 15 14 14 13 13 13 12 11 10 10 10 9 9 10 10 9 9 9 9 8 8 8 9 10 11 12 12 12 10 9 8 9 9 8 7 6 6 4 3 4 3 3 9 10 11 15 17 16 15 12 11 10 9 9 9 9 9 8 11 11 10 11 10 8 9 11
15 16 20 23 22 19 21 24 24 24 23 21 20 20 20 19 18 16 15 13 12 11 11 10 10 11 11 10 10 11 10 11 11 10 10 9 9 8 7 7 9 10 11 10 10 11 11 9 8 8 8 8 7 6 5 5 5 5 3 3 3 3 7 9 15 19 18 16 15 14 12 11 10 10 10 9 8 9 11 10 11 12 10 8 10
16 11 14 20 20 18 20 23 23 22 21 20 20 19 19 18 16 15 12 10 9 9 9 9 9 10 10 9 9 9 10 9 9 10 10 8 7 6 6 7 9 9 10 10 9 9 9 9 9 7 7 8 6 5 4 4 4 4 1 2 4 2 3 6 11 17 19 17 17 16 15 14 13 12 11 10 9 9 10 10 11 13 12 10 10
22 18 15 15 17 20 22 23 23 21 20 20 19 19 18 16 14 12 10 9 8 8 8 9 9 9 8 8 8 8 8 7 7 8 8 7 6 5 6 7 8 9 9 8 8 9 8 8 9 8 8 9 7 5 5 5 4 3 1 1 2 4 5 7 8 11 15 17 18 18 17 16 16 15 15 13 12 11 10 11 11 13 13 12 11
24 24 21 15 17 23 24 25 23 21 20 20 20 18 16 15 13 11 10 9 8 7 8 8 9 8 6 6 5 5 6 6 7 7 7 7 6 5 6 6 7 8 8 7 7 8 7 7 8 8 9 10 9 7 6 5 3 3 2 1 2 2 5 9 9 8 9 14 18 19 17 17 17 17 17 16 15 14 12 11 11 12 13 13 12
26 27 22 15 20 25 25 25 24 21 21 20 20 18 16 15 14 12 10 9 7 7 8 8 7 7 7 6 5 4 5 5 6 7 6 6 6 6 7 7 8 8 7 7 8 8 7 6 8 10 12 13 10 8 6 4 2 1 2 2 3 4 3 7 10 9 8 9 13 16 16 16 16 16 17 17 16 15 15 14 12 12 13 13 13
28 29 22 15 21 27 25 24 24 22 21 20 20 18 17 16 14 13 11 10 9 9 9 9 8 8 8 8 7 7 6 6 5 5 4 3 3 4 5 7 7 7 6 7 8 8 7 6 7 11 12 11 9 7 6 4 2 1 1 1 2 5 4 3 8 10 10 11 10 10 10 10 13 16 16 17 17 16 15 16 15 14 12 13 14
29 29 25 18 22 27 25 23 23 22 21 21 21 20 18 16 15 14 13 11 12 12 11 10 10 9 8 8 8 7 7 7 7 6 5 4 5 4 3 3 4 5 5 6 7 7 7 7 8 10 11 10 9 7 6 4 3 3 2 2 0 3 5 4 4 7 9 11 11 10 8 7 6 10 14 17 18 17 16 16 17 16 15 13 13
35 35 31 25 25 29 26 24 25 24 23 23 23 22 20 18 17 16 14 13 14 14 12 12 12 11 9 9 8 7 6 7 7 6 6 7 7 7 6 5 5 4 5 6 7 8 8 8 7 7 8 9 8 7 6 4 3 3 3 2 0 2 3 4 5 5 5 6 7 6 6 7 6 4 7 12 16 17 17 17 18 18 17 16 14
35 37 34 29 29 31 29 28 28 27 26 26 26 25 23 22 20 19 18 17 17 17 16 15 14 13 11 10 8 7 8 8 6 6 7 7 7 7 7 8 7 6 5 5 6 8 8 7 6 5 5 6 5 5 5 4 3 2 2 4 3 2 3 4 4 4 4 5 5 3 1 3 5 6 4 5 10 14 15 16 18 19 19 19 17
30 33 33 31 31 31 30 29 27 27 27 26 26 25 23 22 21 21 22 22 20 19 18 16 14 11 10 9 7 7 9 8 6 6 7 8 8 7 7 8 8 7 7 6 6 7 8 7 6 6 5 5 3 3 5 4 2 1 1 2 4 4 4 4 4 3 3 4 5 5 5 4 2 2 4 4 6 10 14 15 17 19 20 21 20
29 31 33 32 30 29 28 28 27 26 25 24 24 24 22 20 19 21 21 20 18 16 15 14 12 11 9 9 8 8 10 9 7 6 8 10 10 8 8 8 9 9 10 10 9 8 7 5 5 5 5 5 4 3 4 4 4 3 3 2 2 2 3 4 3 2 2 2 3 4 5 5 5 3 3 5 5 7 12 16 16 17 19 21 21
30 31 32 31 29 28 28 27 27 26 24 23 23 22 21 20 20 20 19 17 16 14 13 13 12 12 11 9 8 8 9 9 9 8 11 13 11 9 8 8 9 10 11 13 12 10 8 5 4 3 4 6 5 4 3 5 5 4 3 1 1 2 1 3 2 1 1 1 0 0 1 2 4 4 4 6 6 6 9 12 14 15 16 17 20
31 32 32 31 29 28 28 28 28 26 25 24 23 22 22 23 23 21 18 17 16 14 14 14 14 13 12 11 11 10 10 10 10 10 12 12 12 11 9 8 10 10 11 12 12 11 10 7 6 4 4 6 5 4 4 5 7 6 4 2 1 1 2 2 2 1 2 3 2 2 1 1 1 4 5 6 6 6 8 10 12 14 13 14 16
31 33 33 32 30 29 30 28 27 26 26 24 23 22 23 24 24 23 21 19 17 15 15 16 15 14 13 12 12 11 9 10 10 11 11 11 11 11 11 11 11 11 10 10 10 10 10 9 8 6 5 4 3 4 5 5 7 7 5 3 1 1 2 1 1 1 3 3 2 2 2 1 1 3 5 6 5 6 8 9 12 14 14 14 15
31 33 33 32 30 29 29 29 25 23 24 23 22 23 24 25 24 23 21 20 19 16 16 17 15 13 12 11 10 8 7 8 8 9 11 11 11 10 10 11 11 10 9 7 8 8 9 9 8 7 7 5 4 5 6 5 4 4 5 3 2 1 1 2 2 1 1 2 3 4 3 2 2 3 5 6 5 4 6 7 7 10 13 14 15
32 33 33 32 30 28 29 28 23 21 24 24 24 25 26 26 25 23 22 21 20 19 18 17 15 13 11 9 8 7 6 7 8 9 10 10 10 10 9 9 10 9 8 8 8 8 8 9 8 8 8 8 6 6 7 5 4 3 3 3 1 1 2 3 2 2 2 0 3 4 5 4 0 3 5 5 4 4 6 6 4 3 5 7 10
33 33 32 32 29 28 29 27 22 23 26 27 27 26 26 27 26 24 23 22 21 20 20 18 15 13 12 10 9 8 8 9 10 11 12 12 11 11 11 12 13 11 10 10 9 9 9 9 9 9 9 10 9 9 9 7 5 4 3 2 2 3 5 5 5 5 4 3 1 3 5 6 4 2 1 2 3 3 5 7 7 6 3 2 4
31 31 31 31 29 28 30 26 23 26 28 27 28 28 27 27 27 26 25 24 24 23 21 19 17 15 14 13 11 10 10 11 11 12 14 13 12 11 12 13 14 14 13 12 10 10 9 10 10 10 10 11 10 10 10 10 8 8 7 5 5 6 7 7 8 7 6 5 3 2 4 5 5 5 5 4 3 2 3 3 6 7 6 7 6
26 27 28 30 29 29 30 25 23 26 27 27 27 27 27 26 26 27 26 26 27 26 23 21 19 18 17 16 13 12 12 12 11 12 13 13 12 10 11 12 12 12 12 10 10 9 9 9 10 10 10 10 10 10 11 11 12 13 12 11 10 10 8 7 8 8 7 5 4 1 4 5 4 5 7 7 6 5 5 4 4 4 4 6 6
Wind_Direction
167 167 168 164 162 157 153 150 143 140 140 143 142 140 140 139 137 134 133 131 127 123 121 120 119 121 122 121 120 118 116 114 112 110 108 104 101 100 98 99 99 99 97 95 97 98 95 97 99 101 102 106 105 107 114 114 111 113 114 109 106 106 106 105 102 99 98 96 92 89 86 85 85 86 83 82 82 83 85 84 83 82 79 76 77
164 164 165 161 159 154 150 146 140 138 138 141 141 141 140 140 139 136 135 132 129 124 122 122 121 123 124 124 122 120 117 114 113 111 109 105 103 102 102 103 103 101 98 96 99 100 98 98 98 100 100 103 105 106 110 109 111 114 112 107 104 105 105 103 101 99 97 96 94 93 90 87 86 84 81 80 81 83 84 84 85 82 80 79 77
159 161 163 159 157 153 148 141 137 138 137 140 142 142 141 142 141 138 137 134 131 126 124 123 123 125 126 126 123 121 118 115 113 111 110 107 106 105 106 106 106 104 97 95 99 100 98 98 100 104 101 98 101 102 104 107 111 114 111 109 106 105 105 102 100 96 91 91 91 94 94 90 85 83 80 79 80 82 82 81 83 81 81 80 78
157 160 159 157 157 152 146 140 138 140 140 142 143 143 142 144 143 141 138 136 133 128 126 124 124 127 128 128 125 124 120 117 114 112 111 108 108 109 109 107 107 105 98 96 100 100 98 98 96 100 101 95 99 101 101 107 112 113 113 113 110 108 107 104 98 93 90 89 88 89 93 93 89 83 80 79 81 83 84 81 81 82 81 78 77
157 159 156 155 156 152 147 142 140 142 141 141 142 142 143 144 143 141 139 137 134 130 128 126 127 128 130 130 128 127 123 119 116 115 114 112 112 111 110 108 106 105 103 102 103 101 101 101 97 99 102 99 100 100 101 109 114 114 115 115 112 112 110 106 100 92 89 89 86 85 87 91 92 87 82 80 79 82 84 83 82 83 83 81 78
157 158 156 154 156 154 149 144 142 142 140 137 138 141 142 143 143 141 139 137 135 132 130 129 130 131 133 133 132 131 127 122 118 118 117 116 116 114 113 111 108 107 106 104 103 103 105 105 101 102 103 105 102 99 104 113 118 118 116 115 114 115 114 112 107 95 88 89 86 82 82 86 90 89 85 80 79 80 81 84 85 84 85 86 82
158 157 157 154 156 154 148 144 142 140 137 135 134 136 138 141 142 140 140 139 137 135 132 133 134 135 135 135 136 135 132 126 122 121 122 121 119 117 114 110 106 108 109 106 107 107 110 107 101 102 103 106 101 100 111 120 124 123 119 116 116 118 119 121 123 114 93 92 90 83 82 86 88 89 91 86 86 88 82 83 84 84 85 85 81
156 156 155 153 154 152 148 143 140 138 135 134 134 133 133 136 140 140 140 140 139 136 135 136 138 140 136 134 135 135 133 129 128 127 126 126 124 122 120 119 118 119 115 109 111 113 116 110 102 104 102 93 93 104 116 126 129 128 124 120 121 123 126 129 138 143 119 112 108 89 87 87 81 83 94 94 97 98 88 86 85 86 86 86 82
153 155 153 151 150 150 146 142 139 136 135 133 133 133 131 132 137 140 141 141 140 138 138 140 142 142 137 134 133 134 134 132 132 129 127 128 129 130 130 132 133 130 120 111 112 123 129 115 104 103 92 74 84 103 118 129 132 131 128 124 124 125 129 131 137 148 136 134 133 109 96 86 77 79 93 101 104 94 86 92 91 88 88 86 84
144 148 149 146 145 148 145 142 139 136 135 133 133 133 132 132 136 139 142 143 142 142 142 144 144 142 139 137 136 136 134 131 130 126 124 125 129 134 137 138 138 133 125 122 126 138 142 125 109 99 88 78 80 97 119 131 134 133 129 125 123 122 119 110 122 158 156 153 150 124 102 88 82 84 89 104 107 92 85 92 94 91 88 85 84
134 137 142 141 144 147 144 141 137 134 133 132 133 133 134 134 137 140 143 144 146 146 145 145 144 143 142 141 138 135 130 126 124 121 120 119 123 128 135 137 133 133 133 136 141 145 146 134 108 89 86 80 79 97 120 135 138 137 132 128 123 116 95 84 118 154 160 158 149 129 108 96 90 89 88 101 108 103 98 96 98 97 93 89 87
138 138 140 140 145 147 143 140 136 133 133 132 133 134 135 136 139 142 144 146 148 148 147 146 144 143 142 141 137 132 128 125 122 119 117 116 118 122 127 130 131 137 140 139 144 150 153 144 102 86 89 86 94 104 122 138 144 140 136 133 123 109 82 81 128 141 149 151 142 127 110 102 94 94 99 106 110 108 105 101 101 102 99 95 92
137 143 147 144 146 146 142 138 135 133 133 133 133 134 135 137 140 143 146 148 150 149 147 145 144 143 141 139 135 132 129 125 122 119 118 117 117 119 124 129 134 136 132 131 139 150 155 148 100 100 99 102 109 104 116 135 143 141 139 134 120 106 80 87 133 141 143 143 135 123 107 101 99 104 115 113 109 109 108 105 104 104 104 97 94
135 142 148 148 148 144 139 136 133 133 134 135 135 135 136 139 141 145 148 149 149 148 146 145 145 144 141 139 136 133 131 127 124 122 120 117 116 119 124 130 135 128 120 124 127 130 136 118 107 113 112 115 112 98 103 123 137 137 136 134 120 104 79 93 138 149 144 140 132 119 105 97 92 97 116 112 106 111 112 109 107 105 104 101 101
133 140 146 147 144 139 136 135 133 133 135 136 137 136 138 140 142 146 148 150 149 148 148 148 147 146 144 140 138 134 131 129 127 126 123 120 118 121 127 131 132 124 118 119 116 112 111 104 109 116 121 119 106 93 92 104 125 130 131 132 122 101 76 96 144 156 148 141 131 119 106 93 86 91 116 122 116 118 116 114 113 109 108 106 104
131 137 145 142 136 135 135 133 133 133 134 136 137 136 138 140 143 147 149 151 151 151 151 150 150 149 147 143 140 137 134 133 130 127 125 123 121 124 131 133 130 122 116 115 108 103 105 109 111 114 125 122 100 90 86 87 110 121 125 130 124 99 72 97 147 162 154 142 131 123 107 89 88 94 126 140 130 124 120 117 116 113 115 112 107
133 139 143 138 136 135 131 130 132 133 135 136 136 137 139 141 144 149 152 154 154 154 154 154 155 152 150 148 146 146 142 139 133 128 126 125 124 125 131 133 131 124 119 115 106 104 114 118 115 116 124 122 103 93 82 79 101 115 122 130 121 89 63 88 152 163 159 148 136 127 105 86 92 92 127 150 138 128 125 121 117 115 117 117 116
141 147 144 141 140 135 131 132 135 136 140 140 139 140 141 144 148 153 156 156 156 157 159 159 159 156 154 155 155 154 150 145 139 135 132 130 129 129 130 132 132 129 126 120 111 110 120 124 119 119 121 117 107 97 87 81 96 110 119 128 104 79 57 67 152 165 164 155 146 135 114 98 104 99 125 151 146 135 133 130 125 122 122 124 124
149 154 154 154 148 138 136 137 140 141 144 143 141 143 145 148 153 159 159 159 160 161 164 165 164 163 163 162 162 158 154 151 146 144 140 136 134 132 131 131 133 132 131 126 122 119 121 126 125 125 122 117 112 100 98 92 95 104 112 121 86 74 60 67 146 166 171 163 154 143 129 120 140 179 156 162 154 142 141 139 135 131 128 127 126
153 157 160 162 155 144 140 141 145 146 146 143 143 147 150 154 159 163 163 165 166 166 168 169 169 169 169 168 166 161 157 155 153 154 151 145 141 138 134 130 132 134 134 131 129 130 129 133 132 136 136 127 123 115 117 109 110 110 107 115 85 78 74 76 146 167 173 167 160 148 137 143 173 186 165 165 158 151 152 149 143 137 132 131 130
156 160 162 162 157 149 146 147 150 150 149 146 148 152 156 161 165 168 169 171 170 170 173 172 173 172 173 174 170 167 163 161 160 159 157 152 146 142 139 132 133 137 137 137 136 142 143 144 145 151 165 177 179 163 157 141 139 127 115 117 94 92 88 80 147 171 175 169 164 154 148 162 177 182 170 166 165 164 158 151 148 144 142 140 137
160 162 163 161 158 155 153 154 155 156 154 152 154 157 163 169 172 174 174 175 173 174 178 179 179 175 175 175 173 171 171 171 166 165 162 157 151 144 142 139 142 147 147 150 152 156 153 154 159 166 179 204 222 197 178 169 161 145 128 120 103 102 92 81 138 174 181 175 170 163 160 171 164 176 177 174 178 174 158 152 153 150 151 149 144
162 162 162 162 161 160 159 160 159 161 161 158 160 162 169 175 177 180 179 179 180 182 183 186 182 177 178 177 177 177 177 179 173 171 168 163 159 154 155 157 159 162 163 166 171 170 166 165 163 165 172 195 207 196 182 171 165 166 147 119 110 108 97 87 124 171 188 184 176 169 163 172 173 183 185 184 190 177 158 160 161 156 156 154 150
161 160 161 163 162 161 161 163 164 168 168 164 165 169 175 180 183 184 184 184 187 190 191 193 188 183 185 186 186 183 182 183 176 175 174 172 170 172 180 182 179 177 178 183 185 184 183 180 168 157 165 198 195 179 170 158 146 155 181 146 123 119 106 101 131 167 194 193 180 173 168 177 182 189 192 192 196 177 164 167 167 164 161 155 154
159 158 158 162 163 161 162 164 168 172 172 170 170 175 182 185 186 188 192 192 192 197 200 203 200 195 195 198 198 191 187 187 187 186 184 181 179 188 201 199 192 190 194 199 198 197 199 192 176 157 151 166 159 154 162 162 164 176 203 190 158 154 140 130 155 171 196 195 182 176 175 185 189 195 199 197 194 176 169 173 171 170 168 161 159
157 158 158 161 163 163 165 167 171 175 177 177 175 181 187 190 191 192 199 199 198 202 205 210 211 206 204 208 208 201 194 194 197 198 201 197 193 205 211 204 199 200 207 210 207 204 207 204 187 171 152 154 162 160 176 214 256 242 219 198 189 197 195 180 173 174 191 193 184 180 183 189 191 198 204 200 188 174 174 178 175 176 175 168 166
158 162 161 161 162 163 167 170 174 178 180 180 181 187 193 196 195 197 204 205 203 205 207 210 211 209 210 214 213 211 208 204 200 198 209 209 205 215 215 208 204 206 210 210 209 206 208 216 204 190 173 177 200 205 219 252 288 267 227 200 202 209 213 201 185 175 181 189 185 178 186 193 196 202 208 201 182 176 181 182 180 182 180 176 175
158 163 164 164 166 170 172 172 177 183 183 184 187 192 198 200 200 203 208 211 210 211 213 211 209 209 211 216 214 215 216 213 209 204 207 207 204 210 212 210 210 212 213 209 210 208 210 227 234 231 220 216 227 242 256 272 307 275 220 202 216 215 225 209 192 182 178 186 187 180 185 192 199 204 208 204 185 182 187 188 186 187 185 182 182
157 164 169 170 174 178 175 172 177 184 184 186 189 195 201 203 204 207 211 217 219 220 220 218 217 213 211 212 210 209 210 212 213 205 197 197 199 204 210 213 216 219 216 214 217 214 214 224 238 251 251 249 248 256 267 262 307 278 220 217 226 226 234 210 194 192 186 187 190 187 187 191 199 206 210 210 191 187 194 195 191 191 191 188 186
159 167 171 173 176 176 170 168 175 182 184 188 191 197 202 204 207 209 213 219 222 224 222 221 221 216 209 208 208 206 203 200 197 193 190 192 197 202 211 221 227 224 217 218 222 221 222 227 235 249 257 258 258 258 262 250 286 322 231 232 237 238 240 214 201 201 195 194 197 192 189 192 199 206 213 214 194 191 201 203 197 198 195 191 191
163 169 173 175 172 165 166 172 177 184 187 190 194 198 202 206 209 211 213 217 221 224 221 217 214 211 208 202 201 204 202 192 185 187 191 195 201 206 215 222 227 226 222 220 220 223 227 230 235 248 253 252 256 260 264 251 243 21 289 250 248 242 241 222 210 208 201 200 200 197 194 193 200 209 214 215 197 191 203 207 202 206 201 194 194
168 170 174 176 171 166 169 176 181 185 189 191 194 198 201 204 208 209 210 213 216 218 219 217 210 206 206 199 196 200 202 199 194 192 194 202 211 215 218 221 227 228 226 223 222 226 228 230 235 246 246 241 250 260 263 252 249 323 360 8 277 240 239 230 213 207 204 204 203 199 197 194 199 207 212 213 201 193 203 206 200 206 211 203 195
166 167 170 173 171 172 176 179 183 186 189 191 193 196 197 199 203 205 208 213 214 214 216 218 215 208 204 200 200 201 204 206 204 198 196 209 221 218 216 214 221 224 222 223 226 229 230 231 236 245 239 229 238 247 254 265 276 302 338 17 351 249 235 231 212 205 203 203 203 201 198 197 201 205 208 211 205 199 204 203 196 202 212 210 198
163 165 170 171 170 179 184 182 183 186 188 191 193 195 197 197 199 202 207 213 213 216 219 213 210 210 205 200 201 203 207 209 207 202 199 205 211 207 207 206 211 218 219 223 229 232 235 240 245 248 224 208 223 240 246 266 282 289 306 20 18 53 176 197 200 205 207 206 203 202 199 197 201 204 207 210 209 205 203 202 198 201 204 205 205
167 164 170 179 181 188 189 185 183 185 187 189 194 196 198 196 194 193 193 195 197 203 205 194 191 195 197 199 201 202 204 206 204 203 202 202 201 201 210 214 215 219 222 227 230 230 235 244 247 240 209 195 211 239 246 247 253 261 247 79 65 81 115 138 156 185 202 211 210 207 203 201 203 205 207 211 215 213 207 206 202 203 204 205 206
170 164 170 191 201 194 188 184 183 187 188 189 192 192 190 190 185 175 169 174 180 181 177 174 172 170 172 182 194 196 198 209 216 212 209 212 215 213 218 227 225 221 222 225 223 222 227 231 225 220 211 206 212 223 228 225 219 228 234 182 149 141 106 111 126 145 174 206 216 211 206 207 210 209 209 210 216 218 215 214 209 207 210 211 208
170 165 173 201 210 196 187 184 183 186 187 185 187 184 178 178 173 161 157 160 161 160 156 152 147 142 139 137 141 157 174 193 212 213 206 212 217 211 215 222 223 221 222 226 224 218 215 205 197 205 215 216 218 222 221 211 188 223 255 251 212 207 150 104 109 115 131 176 207 212 212 218 223 223 219 215 217 218 217 218 216 216 217 215 214
166 164 178 213 212 193 184 181 178 178 180 180 184 180 171 167 166 163 160 153 148 151 147 140 135 127 123 122 122 128 134 138 155 168 163 174 181 186 210 218 219 223 222 221 220 212 200 194 196 206 216 219 222 228 230 228 222 281 324 315 236 219 217 139 115 116 121 136 159 176 191 213 229 233 231 226 225 223 220 218 218 221 223 218 218
165 163 178 210 209 189 181 179 174 173 171 171 172 170 167 165 169 175 174 166 158 157 154 150 144 132 125 125 124 124 123 119 122 125 123 131 128 129 168 193 199 208 207 203 204 200 187 191 205 210 216 220 226 233 239 246 247 257 299 356 331 208 213 203 158 141 132 131 136 139 145 158 200 226 229 230 231 232 229 222 219 221 224 222 220
164 161 171 196 198 181 176 174 170 167 161 158 157 158 160 158 163 170 172 170 167 164 161 156 147 138 133 128 123 121 125 125 119 114 118 125 121 117 124 124 129 152 172 183 192 198 189 187 199 210 218 218 219 226 234 248 258 261 272 296 346 177 199 199 194 195 178 156 146 137 129 125 125 164 210 225 231 234 235 230 225 223 223 224 222
161 159 166 185 185 173 170 167 166 165 162 160 158 158 158 153 151 151 146 146 150 149 146 145 139 133 132 132 128 120 120 121 119 119 128 134 122 115 119 119 119 124 133 144 164 182 182 179 183 195 215 212 206 217 228 240 262 299 292 277 272 251 232 215 204 216 220 219 217 212 199 129 126 122 146 204 220 225 232 235 231 228 226 225 225
157 158 166 178 177 173 174 171 169 170 169 168 165 164 162 158 152 144 138 136 139 139 136 136 134 129 128 128 130 134 130 125 128 129 132 136 121 112 118 117 117 117 111 104 121 151 162 167 177 184 191 192 188 207 220 226 231 220 45 329 304 288 269 254 242 242 233 235 238 235 249 263 242 149 144 179 209 216 222 228 230 231 231 229 228
157 161 168 174 173 176 179 177 176 174 172 169 165 164 163 162 155 146 143 138 135 137 134 132 132 129 126 121 117 132 137 132 136 133 121 124 120 117 120 114 115 112 102 96 96 115 138 157 180 192 186 171 148 145 180 181 172 158 107 47 343 329 301 289 282 279 271 244 239 239 240 251 259 245 181 181 198 209 215 219 221 227 232 233 232
159 165 169 172 175 179 179 176 174 172 170 167 163 163 162 162 157 149 148 141 135 136 134 130 129 124 124 125 122 130 135 128 128 125 113 111 110 114 122 120 116 107 99 97 93 95 105 123 150 171 176 164 144 124 148 159 167 167 126 95 63 55 313 304 345 358 10 46 96 330 248 250 250 227 192 182 183 187 201 211 215 220 227 233 236
163 167 171 174 177 180 178 175 174 173 172 170 168 168 164 160 152 144 142 138 135 137 134 129 127 123 122 123 124 130 131 121 118 120 114 107 102 102 110 122 123 114 106 101 99 98 98 102 110 119 154 166 153 134 142 158 176 184 158 136 82 48 237 264 15 19 36 52 64 54 19 304 246 197 185 172 161 171 189 200 208 216 221 225 232
167 169 172 176 179 182 179 178 179 177 175 175 176 175 168 161 154 148 145 140 137 140 140 137 133 129 126 122 123 128 127 119 114 114 114 109 103 99 99 109 118 118 112 102 97 95 96 102 102 106 130 150 152 140 140 155 178 191 181 171 220 294 220 172 95 358 13 41 63 57 30 29 162 190 195 190 174 163 175 190 203 212 218 219 222
169 170 173 178 181 183 182 182 183 183 182 181 183 179 169 164 162 159 156 151 147 144 145 144 140 135 133 129 125 126 127 126 120 113 115 112 106 102 98 103 113 116 115 107 97 92 94 99 101 108 114 108 112 124 124 130 149 176 189 207 256 339 65 96 133 177 9 31 44 58 48 47 172 202 206 211 212 185 177 180 189 209 216 218 222
170 171 175 178 181 181 182 185 186 187 185 182 183 180 173 169 167 164 160 157 151 147 146 147 146 146 144 141 134 124 119 124 124 116 115 114 108 102 95 97 111 118 118 114 109 107 105 100 100 108 112 103 95 99 101 92 90 117 155 185 221 68 68 68 83 109 138 107 2 28 27 18 35 205 212 216 212 219 228 210 188 193 198 204 218
172 174 176 178 180 179 181 186 187 180 174 174 177 177 175 171 168 164 160 158 154 150 150 149 151 153 146 143 138 124 116 119 122 116 112 113 110 103 93 89 97 102 103 107 112 115 114 109 107 110 114 107 96 91 87 78 84 100 111 128 103 76 70 67 62 63 84 91 15 348 1 12 30 62 199 229 199 217 251 233 231 238 221 215 207
173 176 177 178 180 180 181 187 186 176 168 169 173 172 171 171 169 166 160 159 158 154 154 154 154 152 146 144 142 132 127 126 126 121 118 117 113 106 97 89 89 91 92 96 105 111 115 118 116 117 119 114 107 102 93 88 93 97 101 109 97 80 71 61 56 61 69 74 77 15 355 12 22 35 37 11 343 310 306 265 257 263 264 273 255
170 174 177 178 180 181 182 184 184 178 173 172 173 172 172 173 172 167 163 163 162 158 156 157 158 157 153 151 151 145 136 133 134 134 129 125 121 115 103 94 89 86 85 89 96 100 105 115 121 122 122 122 121 117 106 101 100 99 101 103 97 90 85 74 65 70 76 72 79 27 353 17 18 16 22 14 9 358 339 322 321 330 312 296 278
Height
773 775 777 779 780 780 781 780 781 781 782 783 785 787 788 790 791 792 793 794 795 796 796 797 798 799 800 800 801 802 803 803 804 805 806 807 808 809 809 810 811 812 812 813 814 814 814 815 815 815 816 816 816 816 816 817 817 817 818 819 819 820 821 821 822 822 822 822 822 823 823 823 823 823 823 823 822 822 822 822 822 821 821 821 821
773 776 778 780 782 782 782 782 782 782 783 784 786 788 789 791 792 794 795 796 796 797 798 799 799 801 801 802 802 803 804 804 805 806 807 808 809 810 811 812 812 813 813 814 814 815 816 816 816 816 817 817 817 817 817 818 818 818 819 819 820 821 822 822 823 823 823 823 823 824 824 824 824 824 824 824 824 823 823 823 823 822 822 822 822
773 777 779 781 783 783 783 783 783 783 784 785 787 788 790 792 793 795 796 797 798 798 799 800 801 802 803 803 804 804 805 806 807 807 808 809 810 811 812 813 813 814 814 815 815 816 817 817 817 817 818 818 818 818 818 819 819 819 820 820 821 822 823 823 824 824 824 824 824 824 825 825 825 825 825 825 825 825 824 824 824 823 823 823 823
773 777 780 783 783 784 784 783 783 783 784 785 787 788 790 792 794 796 797 799 799 800 800 801 802 803 804 804 805 806 806 807 808 808 809 810 811 812 813 813 814 815 815 816 817 817 818 818 818 818 818 818 819 819 819 819 820 820 821 821 822 823 823 824 825 825 825 825 825 825 825 826 826 826 826 826 826 826 826 825 825 825 825 825 824
774 778 780 783 784 784 784 783 783 783 784 785 787 789 791 793 795 797 798 800 801 801 801 803 803 804 805 805 806 807 807 808 809 810 810 811 812 813 813 814 815 816 817 817 818 818 819 820 820 820 820 820 820 820 820 820 821 822 822 823 823 824 824 825 825 826 826 826 826 826 826 826 826 827 827 827 827 828 827 827 826 826 826 826 825
773 777 780 782 785 785 784 784 784 784 785 786 788 790 792 794 796 798 800 801 802 803 803 804 804 805 806 807 808 808 809 809 810 811 811 812 813 814 814 815 816 817 818 818 819 819 820 820 821 821 821 821 821 821 821 821 822 823 823 824 824 825 825 826 826 827 827 827 827 827 827 827 827 827 828 829 829 829 828 828 828 827 827 827 826
773 776 779 782 785 786 786 786 786 786 787 788 790 792 794 796 798 799 801 803 804 804 804 805 805 806 807 808 808 809 810 810 811 811 812 813 814 815 815 816 817 818 818 819 819 820 820 821 821 821 822 822 822 822 822 822 823 823 824 824 825 826 826 827 827 827 827 828 828 828 828 828 828 828 829 830 830 830 830 829 829 829 828 828 828
774 777 780 783 787 788 788 788 788 788 789 790 792 794 796 797 799 801 803 804 805 806 806 806 806 807 808 809 809 810 810 811 811 812 813 814 815 815 816 817 818 819 819 819 820 821 821 821 822 822 822 822 823 822 822 823 823 824 825 825 826 826 827 827 828 828 828 829 829 829 829 829 829 829 829 830 830 830 831 831 830 830 829 829 829
777 778 781 785 787 789 790 790 790 790 791 792 793 795 797 799 801 803 804 806 807 807 808 807 808 808 809 810 811 811 811 812 812 813 814 814 815 816 817 817 818 819 819 820 820 821 821 822 822 823 823 823 823 823 823 824 824 825 825 826 826 827 827 828 828 828 829 830 830 830 830 830 830 829 830 830 831 831 831 831 831 831 831 830 830
781 782 783 786 789 791 791 791 791 791 792 793 795 796 798 799 801 803 805 806 808 808 809 809 809 810 810 811 812 812 812 812 813 814 814 815 816 816 817 818 818 819 820 820 821 821 822 822 823 823 824 824 824 824 824 824 825 826 826 826 827 827 828 828 828 828 829 829 830 831 831 831 830 830 830 830 831 831 832 832 832 832 832 832 831
784 790 789 788 791 792 793 793 792 792 793 794 795 796 798 799 801 803 805 806 807 808 809 810 810 811 811 812 813 813 813 813 814 815 815 816 816 817 818 818 819 820 820 821 821 822 822 823 823 824 824 824 824 824 824 825 825 826 826 827 827 828 828 828 827 827 828 829 830 831 831 831 831 831 831 830 831 832 832 833 833 833 833 833 832
781 792 794 792 792 793 793 793 793 793 794 794 795 797 798 799 801 803 805 806 807 808 809 810 811 811 812 813 814 814 814 814 815 815 816 816 817 817 818 818 819 820 821 821 822 822 823 823 824 824 824 824 824 824 824 825 825 826 826 827 827 828 828 827 827 827 828 829 831 831 831 832 832 832 831 831 831 832 833 833 833 833 834 833 833
779 789 794 793 792 793 794 794 793 793 794 795 796 797 798 799 801 803 805 807 807 809 810 811 811 812 813 813 814 814 815 815 815 816 817 817 817 818 818 819 819 820 821 822 823 823 824 824 824 824 824 824 824 824 824 825 825 826 826 827 828 829 828 828 828 828 829 830 831 831 832 832 832 832 832 832 832 833 833 833 834 834 834 834 834
781 787 792 793 793 793 794 795 794 794 795 796 797 798 799 800 802 804 805 807 808 810 810 811 812 813 813 813 814 814 815 815 816 816 817 817 818 818 818 819 820 821 821 822 823 823 824 824 825 825 825 825 825 825 825 825 826 826 827 827 828 829 829 828 829 829 830 831 831 831 832 832 832 833 833 833 833 833 833 834 834 834 834 835 835
784 790 793 792 792 793 794 796 795 795 796 796 798 799 800 801 802 804 806 807 809 810 811 812 812 813 813 813 814 815 816 816 816 816 817 817 818 818 819 820 820 821 821 822 823 823 824 824 825 825 825 825 825 825 825 826 826 827 827 828 829 829 829 829 829 830 831 831 831 832 832 832 833 833 833 834 834 834 834 834 835 835 835 835 835
788 794 797 794 792 794 796 797 797 797 797 798 799 800 802 802 804 805 806 808 810 811 812 813 813 813 813 814 814 815 816 816 816 816 817 817 818 819 819 820 821 821 822 822 823 824 824 825 826 826 826 826 826 826 826 827 827 827 828 828 829 829 830 830 830 831 831 832 832 832 833 833 833 833 834 834 834 835 835 835 835 835 835 836 836
792 798 801 798 794 795 797 798 799 799 799 800 801 802 803 803 804 805 807 809 810 812 813 813 813 813 813 814 814 815 815 816 816 816 817 817 818 819 820 820 821 822 822 823 823 824 825 825 826 826 827 827 827 827 827 827 827 828 828 829 829 829 830 830 830 831 832 832 832 833 833 833 833 833 834 834 835 835 835 835 836 836 836 836 836
792 798 802 802 798 796 796 798 799 800 800 801 802 802 803 803 804 805 808 810 812 813 813 814 814 814 814 814 814 815 816 816 816 816 817 818 819 820 820 821 821 822 823 823 824 825 825 826 826 827 827 828 827 827 827 827 827 828 828 829 829 830 830 830 830 831 832 832 833 833 833 833 833 833 834 834 834 835 836 836 836 836 836 836 837
791 797 801 802 800 797 794 797 799 800 801 802 802 803 804 804 804 806 809 811 812 813 814 814 814 814 814 815 815 816 816 816 816 816 817 818 819 820 821 821 822 823 823 824 825 825 826 826 827 827 828 828 828 828 827 827 827 828 829 829 830 830 830 830 830 831 832 833 833 833 833 833 833 834 834 834 834 835 836 836 836 836 836 837 837
790 796 800 800 799 797 795 797 799 800 801 802 803 803 804 804 805 807 809 811 812 813 814 815 815 815 815 816 816 816 816 817 817 817 817 818 819 820 821 822 823 824 824 825 825 826 826 826 827 827 828 828 828 828 827 827 827 828 829 829 830 831 831 831 831 832 833 833 833 833 833 833 834 834 834 834 834 835 836 836 836 836 837 837 837
792 795 798 799 798 797 795 797 798 800 801 801 802 803 804 804 806 808 809 811 812 813 814 815 816 816 816 816 817 817 817 817 817 818 818 818 819 820 821 822 823 824 825 825 826 826 826 826 826 827 827 828 828 828 828 827 827 828 828 829 830 831 831 831 831 832 833 834 834 834 834 834 834 834 834 835 835 835 835 836 836 837 837 837 837
793 793 794 796 796 796 795 796 798 799 800 801 802 803 804 804 806 808 809 811 812 813 814 815 816 816 817 816 817 817 817 818 818 819 818 819 819 820 822 822 823 824 825 825 826 826 826 826 826 826 827 827 828 828 828 827 827 827 828 829 830 831 831 831 831 832 833 834 834 834 835 834 834 834 834 835 835 835 836 837 837 837 837 837 838
791 792 793 794 794 794 795 796 797 799 800 801 802 803 804 805 807 808 809 811 812 813 813 815 816 817 817 817 817 816 817 818 818 819 819 819 819 820 821 822 822 822 823 825 825 825 825 825 825 826 826 827 827 828 828 827 827 827 827 829 830 831 831 831 831 832 833 834 834 834 835 835 834 834 834 834 835 835 836 837 838 838 838 838 838
789 790 793 795 795 794 794 795 797 798 799 801 802 803 804 806 807 808 809 811 812 813 814 815 817 817 817 817 816 816 817 818 819 819 819 819 819 820 820 821 821 821 823 824 825 825 825 825 825 826 826 826 827 827 828 828 828 827 827 828 829 830 831 831 831 832 833 833 834 834 834 834 834 834 834 834 834 835 836 837 838 838 838 839 839
788 791 793 795 795 794 794 795 796 797 799 801 802 803 804 805 807 808 809 811 812 813 815 816 817 817 817 817 816 816 817 818 819 819 820 820 820 820 820 820 821 821 822 823 824 825 825 825 825 825 825 826 826 827 828 828 828 828 827 827 828 829 830 831 831 832 832 832 833 834 834 834 834 834 834 834 835 835 836 837 838 838 839 839 840
788 791 792 793 793 793 793 794 796 797 799 800 802 803 804 805 806 808 809 811 813 813 815 816 816 817 817 816 816 816 817 817 818 819 820 820 820 819 819 820 821 821 822 823 824 825 825 825 825 825 825 826 826 827 827 827 827 827 827 827 828 828 829 830 830 831 831 832 833 833 834 834 834 834 834 834 835 835 836 837 837 838 839 839 840
786 789 791 792 792 792 791 792 794 796 798 800 801 802 803 805 806 808 809 810 812 813 814 815 816 816 816 816 816 816 817 817 818 819 819 820 819 819 819 820 820 821 821 823 824 825 826 825 825 825 825 826 826 827 827 827 827 827 827 827 827 827 828 829 829 830 831 831 832 833 833 834 834 834 834 834 835 836 836 837 837 838 839 839 840
785 788 790 790 790 789 788 788 792 795 797 799 800 801 803 804 806 808 809 810 812 813 814 815 816 816 816 815 815 815 816 817 817 818 819 819 818 818 818 819 820 820 821 823 824 825 825 825 826 826 826 826 826 827 827 827 827 827 826 826 827 827 827 828 828 829 830 831 831 832 832 833 834 834 834 835 835 836 836 837 837 838 839 839 840
783 786 788 788 788 789 787 786 788 793 796 798 800 801 803 805 806 808 809 810 811 812 813 814 815 815 815 815 815 815 815 816 816 817 818 818 817 817 817 818 819 820 821 822 823 824 824 825 825 826 826 826 826 827 827 828 828 827 826 825 826 827 827 827 828 829 829 830 831 831 832 832 833 834 834 834 835 836 836 837 837 838 838 839 840
784 786 787 789 790 791 791 789 790 794 797 799 801 802 803 805 806 808 809 810 811 812 813 814 814 815 815 815 814 814 815 815 816 816 817 817 817 816 816 817 818 820 821 822 823 823 824 824 825 825 826 826 826 827 827 828 828 827 826 825 826 826 826 827 827 828 828 829 830 831 831 832 833 833 834 834 835 836 836 837 837 838 838 839 840
786 787 788 789 791 793 794 793 794 796 799 800 802 803 804 805 807 808 810 810 811 812 813 813 814 814 814 814 814 814 814 814 815 816 817 816 816 816 816 817 818 819 820 821 822 823 823 824 824 825 825 826 826 826 827 827 827 827 825 825 825 825 826 826 827 827 828 828 829 830 830 831 832 833 833 834 834 835 836 836 837 837 838 839 839
788 788 789 791 792 795 796 796 796 798 800 802 803 804 805 806 807 809 810 811 811 812 812 813 813 813 813 813 813 813 814 814 815 815 816 816 816 815 816 817 818 819 820 821 821 822 822 823 824 825 825 825 825 826 826 827 827 827 826 825 825 825 825 825 826 826 827 827 828 829 829 830 832 832 833 833 834 834 835 836 837 837 838 838 839
789 790 791 792 794 797 798 797 798 799 801 802 803 804 805 807 808 809 810 810 811 811 812 812 812 813 813 813 813 813 814 814 815 815 816 816 816 816 817 817 818 819 820 820 821 821 822 823 824 824 825 825 825 825 826 826 826 826 826 826 825 824 824 824 826 826 827 827 828 828 829 830 831 832 832 833 833 833 834 835 836 837 837 838 838
788 792 793 794 796 798 798 799 800 800 802 803 804 805 806 807 808 809 810 810 810 811 811 811 812 812 813 813 813 813 814 814 815 815 815 815 816 816 816 817 818 819 820 820 821 821 821 822 823 824 824 825 825 825 825 826 826 826 826 826 825 825 824 824 825 826 827 827 828 828 829 829 830 831 832 832 833 833 834 834 835 837 837 838 838
787 790 794 796 797 798 799 799 800 801 802 803 804 805 806 807 809 809 810 810 810 810 810 811 812 812 813 813 813 813 813 814 814 815 815 815 815 816 816 817 818 819 819 820 820 821 821 822 822 823 824 824 825 825 825 825 825 825 825 826 826 825 825 824 824 825 827 827 828 828 828 829 830 831 832 833 833 833 834 834 835 836 837 837 838
788 788 793 797 799 798 799 800 800 801 801 803 804 805 807 808 809 809 810 810 810 810 810 811 812 813 813 813 813 813 813 814 814 814 814 815 815 815 816 816 817 818 819 819 820 821 821 822 822 823 824 824 824 824 824 824 824 825 825 825 826 826 826 825 825 825 826 826 827 827 828 829 829 830 831 832 833 834 834 835 836 836 837 837 837
787 787 792 797 799 798 799 799 800 800 801 803 804 805 807 808 809 809 810 810 811 811 811 812 812 813 813 813 813 813 814 814 814 814 814 815 815 815 816 816 817 818 818 819 819 820 821 822 822 822 823 823 823 824 824 824 824 825 825 825 826 826 826 826 826 825 825 826 826 827 828 829 830 830 831 831 832 833 834 835 836 836 836 837 837
785 786 793 799 800 798 799 799 800 801 801 802 804 806 807 808 809 810 810 811 811 812 812 812 813 813 813 813 814 814 814 814 814 815 815 815 815 815 816 816 817 817 818 818 818 819 820 821 821 821 822 822 823 824 824 824 824 824 825 825 825 826 826 826 826 826 826 826 827 827 828 829 829 830 830 831 832 832 833 834 835 836 836 836 837
783 785 793 801 802 799 799 799 800 801 802 803 804 806 807 808 809 810 811 811 812 813 813 814 813 814 814 814 814 814 815 815 815 815 815 815 815 815 815 815 816 817 817 817 818 818 819 821 821 820 821 822 822 823 823 823 823 824 824 824 825 825 825 826 827 827 827 827 827 827 828 828 828 829 829 830 831 832 832 833 833 834 835 836 836
780 781 788 799 801 799 799 799 800 802 802 803 804 806 807 809 809 810 811 811 813 814 814 815 815 815 815 815 815 815 815 815 816 816 816 816 816 816 816 816 816 816 817 817 817 818 819 820 820 820 820 821 821 822 822 822 823 823 823 824 825 825 825 825 826 827 827 827 827 828 828 827 827 828 828 829 830 831 831 832 833 833 834 835 835
780 779 784 794 798 797 798 799 801 802 803 803 804 805 807 808 809 810 811 812 813 814 815 815 815 815 815 816 816 816 816 816 816 816 816 816 816 816 816 816 816 816 817 817 817 818 819 819 819 819 819 820 821 821 821 822 822 822 823 824 824 824 825 825 825 826 826 826 827 828 828 828 827 828 828 829 829 830 830 831 832 832 833 834 835
781 781 784 792 795 796 798 799 801 803 803 804 805 806 807 808 809 810 811 812 813 814 815 815 815 815 815 816 816 816 816 816 816 816 816 816 816 816 816 816 816 816 816 817 817 818 818 819 818 818 819 820 820 821 821 821 822 822 823 823 824 823 823 824 825 825 825 825 826 827 827 828 828 828 828 828 828 828 829 829 830 831 832 833 833
781 783 787 791 793 795 798 799 802 803 805 806 806 807 808 809 810 810 811 812 813 814 814 815 815 815 815 816 816 816 817 817 817 816 816 816 816 816 816 817 817 817 817 816 816 817 817 817 817 817 818 819 820 820 821 821 822 822 823 824 825 825 824 823 823 824 824 825 825 825 826 827 827 827 828 828 827 827 827 828 828 829 830 831 832
781 784 787 790 793 795 797 800 802 804 806 807 808 809 809 810 811 811 812 813 814 814 814 815 815 815 815 816 817 817 817 817 817 817 817 817 817 817 817 817 817 817 817 817 817 817 817 817 816 816 817 817 818 819 820 821 821 822 823 825 826 827 826 824 823 824 824 824 824 824 825 826 826 827 827 827 827 826 826 826 827 828 828 829 830
781 784 786 789 792 795 798 800 802 804 806 807 808 809 809 810 810 811 813 813 814 814 814 814 814 815 816 817 817 817 817 817 818 817 817 818 817 817 817 817 817 818 818 817 817 817 817 817 816 816 816 817 818 818 819 820 821 822 823 824 826 827 827 824 824 824 824 824 824 824 825 825 826 826 827 827 827 826 826 826 826 827 827 828 828
781 783 785 789 792 795 798 801 803 804 806 807 808 809 809 809 809 810 812 813 815 815 815 815 815 816 817 818 818 818 818 818 818 818 818 818 818 818 818 818 818 818 818 818 817 818 817 817 817 817 817 818 818 818 819 820 821 822 822 823 824 825 825 824 825 825 824 824 824 824 824 824 825 826 827 827 827 826 826 825 825 826 826 826 827
780 782 785 788 791 794 798 800 803 804 805 806 807 807 808 808 809 810 812 813 814 815 816 816 816 816 817 818 819 819 819 819 819 819 819 819 819 819 819 819 819 819 819 818 818 818 818 818 818 818 818 819 819 819 820 821 821 822 823 823 823 824 824 824 825 826 826 825 824 823 824 824 825 826 826 827 827 827 826 825 825 825 826 826 826
779 782 785 787 790 793 797 799 801 803 803 804 805 806 806 807 809 811 812 814 814 815 817 817 818 817 818 818 819 819 819 819 820 820 820 820 820 820 821 820 820 820 820 819 819 819 819 819 819 819 820 820 821 821 821 821 822 823 823 824 824 824 824 824 824 825 825 826 825 824 824 824 825 825 826 826 826 826 826 825 826 826 826 826 825
778 780 783 787 790 793 796 798 800 801 801 802 803 805 806 807 809 811 812 814 814 815 816 817 818 818 818 819 820 820 820 820 820 820 820 820 821 821 822 821 821 821 821 821 821 820 821 821 821 821 821 822 822 822 822 822 823 823 824 824 825 825 825 825 825 825 825 826 827 826 825 825 824 825 826 826 826 826 825 825 826 826 826 826 825
777 780 783 787 790 793 795 797 799 800 800 800 802 804 806 807 809 810 812 813 813 815 816 818 819 819 819 820 820 821 821 821 821 821 821 821 821 822 822 822 822 822 822 822 822 822 822 822 822 823 823 823 824 823 824 824 824 824 825 825 826 826 826 826 826 825 825 826 827 827 827 826 825 825 825 825 825 825 825 825 826 826 827 826 826
779 781 784 786 789 792 794 796 798 799 799 800 801 803 805 807 809 810 811 812 812 813 815 817 819 820 820 821 821 822 821 821 822 822 822 822 822 822 823 823 823 823 823 823 824 823 824 824 824 824 824 824 825 825 825 825 825 825 826 826 826 827 827 827 827 827 826 827 827 828 827 827 826 826 825 825 825 825 825 825 826 827 828 827 827